User: anonymous
Location: Caltech
(34.1382°N, 118.1253°W)
Time: 22:20:57
(UTC-07:00)
Language:

deb Explorer IX - Orbit

View from above orbital plane
View from above orbital plane
View from above satellite
View from above satellite

Ground track
Ground track

The orbit data is extracted from the following two-line orbital elements,

1 00085U 61004C   14210.76041980  .00004831  00000-0  12723-2 0    69
2 00085 038.7700 108.0983 0457847 318.8686 037.8376 14.01393036626259
Epoch (UTC): 29 July 2014 18:15:00
Eccentricity: 0.0457847
inclination: 38.7700°
perigee height: 556 km
apogee height: 1221 km
right ascension of ascending node: 108.0983°
argument of perigee: 318.8686°
revolutions per day: 14.01393036
mean anomaly at epoch: 37.8376°
orbit number at epoch: 62625

The dashed part of the orbit path shows where the satellite is in the earth's shadow,  

DLR